Station 41044 - NE ST MARTIN - 330 NM NE St Martin Is Image indicating link to RSS feed of recent meteorological observations for station 41044


Conditions at 41044 as of
(1:00 pm AST)
1700 GMT on 04/18/2024:
     

Click on the graph icon in the table below to see a time series plot of the last five days of that observation.

5-day plot - Wind Direction Wind Direction (WDIR): N ( 10 deg true )
5-day plot - Wind Speed Wind Speed (WSPD): 9.7 kts
5-day plot - Wind Gust Wind Gust (GST): 11.7 kts
5-day plot - Atmospheric Pressure Atmospheric Pressure (PRES):29.92 in
5-day plot - Pressure Tendency Pressure Tendency (PTDY):-0.03 in ( Falling )
5-day plot - Air Temperature Air Temperature (ATMP): 77.4 °F
5-day plot - Water Temperature Water Temperature (WTMP): 79.2 °F
5-day plot - Dew Point Dew Point (DEWP): 72.0 °F
5-day plot - Heat Index Heat Index (HEAT): 79.2 °F
5-day plot - Wind Speed at 10 Meters Wind Speed at 10 meters (WSPD10M): 9.7 kts
5-day plot - Wind Speed at 20 Meters Wind Speed at 20 meters (WSPD20M): 11.7 kts
5-day plot -  Wind Speed, Wind Gust and Atmospheric Pressure Combined plot of Wind Speed, Gust, and Air Pressure
Supplemental Measurements
Highest 1-minute Wind Speed
Time (AST)5-day plot - 1-Minute Wind Speed WSPD 5-day plot - 1-Minute Wind Direction WDIR
12:54 pm 9.7 kts-
Previous observations
TIME
(AST)
5-day plot - Wind Direction
WDIR
 
5-day plot - Wind Speed
WSPD
kts
5-day plot - Wind Gust
GST
kts
5-day plot - Wave Height
WVHT
ft
5-day plot - Dominant Wave Period
DPD
sec
5-day plot - Average Wave Period
APD
sec
5-day plot - Mean Wave Direction
MWD
 
5-day plot - Atmospheric Pressure
PRES
in
5-day plot - Pressure Tendency
PTDY
in
5-day plot - Air Temperature
ATMP
°F
5-day plot - Water Temperature
WTMP
°F
5-day plot - Dew Point
DEWP
°F
5-day plot - Salinity
SAL
psu
5-day plot - Visibility
VIS
nmi
5-day plot - Tide (above MLLW)
TIDE
ft
2024-04-18 12:50 pm N 9.7 13.6 6.2 127.1 NE29.91- 77.5 79.0 72.1---
2024-04-18 12:40 pm N 9.7 11.7----29.92- 77.5 79.0 72.1---
2024-04-18 12:30 pm N 9.7 11.7----29.92- 77.4 79.0 72.1---
2024-04-18 12:20 pm N 9.7 11.7 6.6 127.0 NE29.92- 77.4 79.0 72.3---
2024-04-18 12:10 pm N 9.7 11.7 6.6-7.0 NE29.93- 77.5 79.0 72.5---
2024-04-18 12:00 pm N 9.7 11.7----29.93+0.00 77.5 79.0 72.5---
2024-04-18 11:50 amNNW 5.8 9.7 5.9 126.9 E29.93- 77.5 79.0 72.5---
2024-04-18 11:40 amNNW 7.8 9.7 5.9-6.9 E29.93- 77.4 79.0 72.3---
2024-04-18 11:30 am NW 7.8 9.7----29.94- 77.4 79.0 72.3---
2024-04-18 11:20 amNNW 7.8 9.7 6.6 127.0ENE29.94- 77.4 79.0 72.3---
2024-04-18 11:10 amNNW 7.8 9.7 6.6-7.0ENE29.94- 77.4 78.8 72.3---
2024-04-18 11:00 amNNW 7.8 11.7----29.94+0.02 77.4 78.8 72.3---
2024-04-18 10:50 amNNW 7.8 11.7 6.6 116.9 NE29.94- 77.4 78.8 72.3---
2024-04-18 10:40 amNNW 7.8 9.7----29.94- 77.4 78.8 72.3---
2024-04-18 10:30 amNNW 7.8 11.7----29.94- 77.4 78.8 72.3---
2024-04-18 10:20 amNNW 7.8 11.7 6.9 127.3 NE29.94- 77.4 78.6 72.0---
2024-04-18 10:10 amNNW 7.8 11.7 6.9-7.3 NE29.94- 77.2 78.6 72.0---
2024-04-18 10:00 am NW 7.8 11.7----29.94+0.03 77.2 78.6 71.8---
2024-04-18 09:50 am NW 7.8 11.7 6.6 126.9ENE29.94- 77.2 78.6 71.8---
2024-04-18 09:40 am NW 7.8 11.7----29.94- 77.2 78.6 71.8---
2024-04-18 09:30 am NW 7.8 9.7----29.94- 77.2 78.6 72.0---
2024-04-18 09:20 am NW 7.8 9.7 6.6 127.0 NE29.94- 77.0 78.6 72.1---
2024-04-18 09:10 am NW 7.8 11.7 6.6-7.0 NE29.94- 77.0 78.4 72.1---
2024-04-18 09:00 am NW 7.8 11.7----29.94+0.04 76.8 78.4 71.8---
2024-04-18 08:50 am NW 7.8 9.7 7.2 127.1ENE29.93- 76.6 78.4 71.6---
2024-04-18 08:40 am NW 7.8 9.7----29.93- 76.6 78.4 71.6---
2024-04-18 08:30 am NW 7.8 11.7----29.93- 76.6 78.4 71.6---
2024-04-18 08:20 am NW 7.8 9.7 7.5 127.4ENE29.93- 76.6 78.4 71.4---
2024-04-18 08:10 am NW 7.8 11.7 7.5-7.4ENE29.92- 76.6 78.4 71.6---
2024-04-18 08:00 amNNW 7.8 9.7----29.92+0.04 76.6 78.3 71.4---
2024-04-18 07:50 amNNW 7.8 11.7 7.5 87.2ENE29.91- 76.6 78.3 71.6---
2024-04-18 07:40 amNNW 7.8 11.7----29.92- 76.6 78.3 71.8---
2024-04-18 07:30 am NW 9.7 11.7----29.91- 76.8 78.3 72.0---
2024-04-18 07:20 am NW 9.7 11.7 7.2 87.2 NE29.91- 76.8 78.3 72.0---
2024-04-18 07:10 am NW 7.8 11.7 7.2-7.2 NE29.91- 76.8 78.3 72.1---
2024-04-18 07:00 am NW 9.7 11.7----29.91+0.04 76.8 78.3 72.1---
2024-04-18 06:50 am NW 9.7 11.7 8.2 127.3ENE29.91- 76.6 78.3 72.1---
2024-04-18 06:40 am NW 9.7 11.7----29.91- 77.0 78.3 72.7---
2024-04-18 06:30 am NW 7.8 11.7----29.91- 77.0 78.3 72.7---
2024-04-18 06:20 am NW 7.8 9.7 8.5 87.5 NE29.91- 77.2 78.3 72.9---
2024-04-18 06:10 amWNW 7.8 9.7 8.5-7.5 NE29.90- 77.4 78.3 72.7---
2024-04-18 06:00 am W 5.8 9.7----29.90+0.02 77.4 78.3 72.3---
2024-04-18 05:50 amWSW 5.8 9.7 8.2 137.2ESE29.89- 77.4 78.3 72.3---
2024-04-18 05:40 am SW 7.8 11.7----29.89- 77.4 78.3 72.3---
2024-04-18 05:30 am SW 7.8 11.7----29.89- 77.4 78.3 72.3---
2024-04-18 05:20 amSSW 7.8 13.6 8.2 87.1 NE29.88- 77.4 78.3 72.3---
2024-04-18 05:10 amSSW 5.8 11.7 8.2-7.1 NE29.88- 77.4 78.3 72.3---
2024-04-18 05:00 amSSW 7.8 11.7----29.88-0.01 77.2 78.3 72.3---
2024-04-18 04:50 amSSW 5.8 11.7 8.2 87.0ENE29.88- 77.2 78.3 72.5---
2024-04-18 04:40 amSSW 5.8 9.7----29.88- 77.2 78.3 72.5---
2024-04-18 04:30 amSSW 5.8 9.7----29.88- 77.2 78.3 72.5---
2024-04-18 04:20 am S 5.8 9.7 9.5 87.3 NE29.88- 77.0 78.3 72.3---
2024-04-18 04:10 am S 5.8 9.7 9.5-7.3 NE29.87- 76.8 78.3 72.3---
2024-04-18 04:00 am S 5.8 9.7----29.87-0.03 76.8 78.3 72.3---
2024-04-18 03:50 am S 5.8 9.7 8.9 137.1ENE29.88- 76.6 78.3 72.1---
2024-04-18 03:40 amSSE 3.9 7.8----29.88- 76.6 78.3 72.1---
2024-04-18 03:30 amSSE 3.9 7.8----29.88- 76.6 78.3 72.3---
2024-04-18 03:20 amSSE 3.9 7.8 8.9 86.9NNE29.87- 76.5 78.3 72.1---
2024-04-18 03:10 amSSE 3.9 5.8 8.9-6.9NNE29.88- 76.5 78.3 72.1---
2024-04-18 03:00 am SE 3.9 7.8----29.88-0.04 76.3 78.3 72.0---
2024-04-18 02:50 am E 3.9 5.8 9.2 137.2ENE29.88- 76.3 78.3 72.1---
2024-04-18 02:40 am E 3.9 5.8 9.2-7.2ENE29.88- 76.3 78.3 72.1---
2024-04-18 02:30 am E 3.9 7.8----29.88- 76.3 78.3 72.0---
2024-04-18 02:20 am E 5.8 7.8 8.5 136.8 NE29.88- 76.1 78.3 72.0---
2024-04-18 02:10 am E 5.8 9.7 8.5-6.8 NE29.88- 76.1 78.3 72.1---
2024-04-18 02:00 am E 5.8 9.7----29.88-0.06 75.9 78.3 72.0---
2024-04-18 01:50 am E 7.8 9.7 8.9 87.0NNE29.89- 75.9 78.3 71.8---
2024-04-18 01:40 am E 7.8 11.7----29.89- 75.9 78.3 72.0---
2024-04-18 01:30 am E 9.7 11.7----29.89- 75.9 78.3 72.0---
2024-04-18 01:20 amENE 9.7 13.6 9.2 86.9NNE29.90- 75.7 78.3 72.0---
2024-04-18 01:10 amENE 9.7 13.6----29.90- 75.6 78.3 71.8---
2024-04-18 01:00 amENE 11.7 13.6----29.90-0.04 75.6 78.3 71.8---
2024-04-18 12:50 amENE 11.7 15.5 8.9 126.8 NE29.91- 75.6 78.3 71.8---
2024-04-18 12:40 amENE 11.7 15.5----29.91- 75.6 78.3 71.8---
2024-04-18 12:30 amENE 11.7 15.5----29.92- 75.6 78.3 72.0---
2024-04-18 12:20 amENE 13.6 17.5 8.2 126.6 NE29.92- 75.7- 72.0---
2024-04-18 12:10 am NE 13.6 17.5 8.2-6.6 NE29.92- 75.6 78.3 71.8---
2024-04-18 12:00 am NE 15.5 17.5----29.92-0.02 75.7 78.3 72.0---
2024-04-17 11:50 pm NE 15.5 19.4 7.5 136.6ENE29.93- 75.6 78.3 71.8---
2024-04-17 11:40 pm NE 15.5 19.4----29.93- 75.7 78.3 72.0---
2024-04-17 11:30 pm NE 15.5 19.4----29.93- 75.7 78.3 72.0---
2024-04-17 11:20 pmNNE 15.5 19.4 7.2 126.4 NE29.94- 75.7 78.3 72.0---
2024-04-17 11:10 pmNNE 17.5 21.4 7.2-6.4 NE29.94- 75.7 78.3 72.0---
2024-04-17 11:00 pmNNE 17.5 21.4----29.94+0.01 75.7 78.3 72.1---
2024-04-17 10:50 pmNNE 17.5 23.3 7.2 126.7 NE29.95- 75.7 78.3 72.1---
2024-04-17 10:40 pmNNE 17.5 21.4 7.2-6.7 NE29.95- 75.9 78.3 72.5---
2024-04-17 10:30 pmNNE 17.5 21.4----29.95- 76.3 78.3 73.0---
2024-04-17 10:20 pmNNE 17.5 21.4 6.9 136.8NNE29.95- 76.5 78.3 73.4---
2024-04-17 10:10 pmNNE 13.6 19.4 6.9-6.8NNE29.95- 77.2 78.3 73.6---
2024-04-17 10:00 pmNNE 11.7 15.5----29.95+0.02 76.8 78.3 72.7---
2024-04-17 09:50 pmNNE 11.7 15.5 7.5 137.4 NE29.95- 76.6 78.3 72.9---
2024-04-17 09:40 pmNNE 11.7 15.5----29.95- 76.5 78.3 72.5---
2024-04-17 09:30 pm N 13.6 15.5----29.95- 76.3- 72.1---
2024-04-17 09:20 pm N 11.7 15.5 6.9 116.8 NE29.94- 76.1 78.3 71.8---
2024-04-17 09:10 pm N 13.6 17.5 6.9-6.8 NE29.94- 75.9 78.4 72.0---
2024-04-17 09:00 pm N 15.5 17.5----29.94+0.03 75.7 78.4 72.0---
2024-04-17 08:50 pm N 15.5 19.4 7.5 127.5 NE29.94- 75.7 78.4 72.3---
2024-04-17 08:40 pm N 13.6 19.4----29.94- 75.4 78.4 72.3---
2024-04-17 08:30 pmNNW 13.6 17.5----29.94- 75.4 78.4 72.1---
2024-04-17 08:20 pmWNW 13.6 19.4 7.2 137.1ENE29.94- 75.7 78.4 71.8---
2024-04-17 08:10 pm W 17.5 23.3 7.2-7.1ENE29.93- 75.2 78.4 71.4---
2024-04-17 08:00 pmWSW 13.6 21.4----29.93+0.04 77.5 78.4 74.1---
2024-04-17 07:50 pm SW 9.7 13.6 7.2 137.1ENE29.93- 78.3 78.4 75.2---
2024-04-17 07:40 pm SW 9.7 11.7----29.93- 78.3 78.4 75.0---
2024-04-17 07:20 pmSSW 9.7 13.6 7.2 117.2 NE29.93- 77.9 78.4 74.3---
2024-04-17 07:10 pmSSW 11.7 15.5----29.93- 78.3 78.4 74.7---
2024-04-17 07:00 pmSSW 9.7 17.5----29.92+0.04 78.4 78.4 75.0---
2024-04-17 06:50 pmSSW 11.7 15.5 7.2 137.1 NE29.92- 78.3 78.4 74.7---
2024-04-17 06:40 pm S 11.7 15.5----29.92- 78.4 78.4 74.8---
2024-04-17 06:30 pmSSW 9.7 13.6----29.92- 78.4 78.4 74.7---
2024-04-17 06:20 pm S 9.7 13.6 6.9 126.6 NE29.91- 78.4 78.4 74.7---
2024-04-17 06:10 pm S 9.7 13.6 6.9-6.6 NE29.91- 78.4 78.6 74.5---
2024-04-17 06:00 pm S 9.7 13.6----29.91+0.01 78.4 78.6 74.5---
2024-04-17 05:50 pm S 9.7 13.6 7.2 146.8ENE29.91- 78.4 78.4 74.5---
2024-04-17 05:40 pm S 9.7 13.6----29.91- 78.4 78.4 74.7---
2024-04-17 05:30 pm S 9.7 13.6----29.91- 78.4 78.6 74.7---
2024-04-17 05:20 pm S 11.7 13.6 7.2 136.8 NE29.90- 78.4 78.6 74.7---
2024-04-17 05:10 pm S 11.7 13.6 7.2-6.8 NE29.89- 78.4 78.6 74.5---
2024-04-17 05:00 pm S 11.7 15.5----29.89-0.03 78.4 78.6 74.3---
2024-04-17 04:50 pm S 13.6 15.5 6.9 116.3 NE29.89- 78.4 78.6 74.3---
2024-04-17 04:40 pm S 13.6 15.5 6.9-6.3 NE29.89- 78.6 78.4 74.3---
2024-04-17 04:30 pm S 13.6 17.5----29.89- 78.8 78.6 74.5---
2024-04-17 04:20 pm S 13.6 17.5 7.9 116.8 NE29.89- 78.6 78.6 74.3---
2024-04-17 04:10 pm S 13.6 19.4 7.9-6.8 NE29.89- 78.6 78.6 74.3---
2024-04-17 04:00 pm S 13.6 17.5----29.89-0.05 78.6 78.6 74.5---
2024-04-17 03:50 pm S 11.7 15.5 7.5 126.5 NE29.89- 78.3 78.6 74.1---
2024-04-17 03:40 pm S 11.7 15.5----29.89- 77.9 78.6 74.1---
2024-04-17 03:30 pm S 13.6 17.5----29.89- 77.9 78.6 74.1---
2024-04-17 03:20 pm S 13.6 17.5 7.2 136.4ENE29.89- 77.5 78.6 73.9---
2024-04-17 03:10 pm S 13.6 19.4 7.2-6.4ENE29.90- 77.4 78.6 73.6---
2024-04-17 03:00 pm S 15.5 19.4----29.90-0.06 77.4 78.6 73.9---
2024-04-17 02:50 pm S 15.5 19.4 7.2 136.5ENE29.91- 77.4 78.6 73.9---
2024-04-17 02:40 pm S 15.5 19.4----29.91- 77.5 78.6 73.8---
2024-04-17 02:30 pm S 15.5 21.4----29.91- 77.9 78.6 73.8---
2024-04-17 02:20 pmSSE 13.6 17.5 7.5 136.6 NE29.91- 77.4 78.6 73.4---
2024-04-17 02:10 pm S 13.6 19.4----29.91- 77.2 78.6 73.6---
2024-04-17 02:00 pmSSE 11.7 15.5----29.92-0.05 76.5 78.6 73.4---
2024-04-17 01:50 pmSSE 11.7 15.5 7.5 136.5 NE29.92- 76.1 78.6 73.0---
2024-04-17 01:40 pmSSE 11.7 13.6----29.92- 75.9 78.6 73.0---
2024-04-17 01:30 pmSSE 13.6 17.5----29.93- 76.1 78.6 73.0---
2024-04-17 01:20 pmSSE 11.7 17.5 7.9 126.9 NE29.93- 77.0 78.4 73.6---
2024-04-17 01:10 pm SE 11.7 15.5 7.9-6.9 NE29.94- 76.8 78.6 73.4---
2024-04-17 01:00 pm SE 13.6 17.5----29.94-0.03 77.5 78.6 73.4---
2024-04-17 12:50 pm SE 11.7 15.5 7.9 116.6 NE29.94- 77.4 78.4 73.2---

Detailed Wave Summary
for 41044 as of (12:40 pm AST)
1640 GMT on 04/18/2024:

These wave data are displayed in rounded times.

     

Click on the graph icon in the table below to see a time series plot of the last five days of that observation.

5-day plot - Significant Wave Height Significant Wave Height (WVHT): 6.2 ft
5-day plot - Swell Height Swell Height (SwH): 5.9 ft
5-day plot - Swell Period Swell Period (SwP): 12.1 sec
5-day plot - Swell Direction Swell Direction (SwD): NE
5-day plot - Wind Wave Height Wind Wave Height (WWH): 1.6 ft
5-day plot - Wind Wave Period Wind Wave Period (WWP): 3.8 sec
5-day plot - Wind Wave Direction Wind Wave Direction (WWD):NNE
5-day plot - Wave Steepness Wave Steepness (STEEPNESS): SWELL
5-day plot - Average Wave Period Average Wave Period (APD): 7.1 sec
Previous observations
TIME
(AST)
5-day plot - Wave Height
WVHT
ft
5-day plot - Swell Height
SwH
ft
5-day plot - Swell Period
SwP
sec
5-day plot - Swell Direction
SwD
 
5-day plot - Wind Wave Height
WWH
ft
5-day plot - Wind Wave Period
WWP
sec
5-day plot - Wind Wave Direction
WWD
 
5-day plot - Wave Steepness
STEEPNESS
 
5-day plot - Average Wave Period
APD
sec
2024-04-18 12:10 pm 6.6 6.2 12.1 NE 1.6 4.5 NNE SWELL 7.0
2024-04-18 11:40 am 5.9 5.9 12.1 E 1.3 4.0 NNE SWELL 6.9
2024-04-18 11:10 am 6.6 6.2 12.1ENE 1.3 3.7 NNE SWELL 7.0
2024-04-18 10:40 am 6.6 6.2 11.4 NE 1.3 3.4 N SWELL 6.9
2024-04-18 10:10 am 6.9 6.9 12.1 NE 1.3 4.0 NE SWELL 7.3
2024-04-18 09:40 am 6.6 6.2 12.1ENE 1.3 3.6 NNE SWELL 6.9
2024-04-18 09:10 am 6.6 6.6 12.1 NE 1.3 3.8 NE SWELL 7.0
2024-04-18 08:40 am 7.2 6.9 12.1ENE 1.3 3.2 NNW SWELL 7.1
2024-04-18 08:10 am 7.5 7.5 12.1ENE 1.6 3.6 N SWELL 7.4
2024-04-18 07:40 am 7.5 7.2 7.7ENE 1.3 4.0 N STEEP 7.2
2024-04-18 07:10 am 7.2 7.2 8.3 NE 1.3 3.6 N STEEP 7.2
2024-04-18 06:40 am 8.2 7.9 12.1ENE 2.0 4.5 NNE SWELL 7.3
2024-04-18 06:10 am 8.5 8.5 8.3 NE 1.3 3.6 NNE STEEP 7.5
2024-04-18 05:40 am 8.2 8.2 12.9ESE 1.6 4.0 NNE SWELL 7.2
2024-04-18 05:10 am 8.2 7.9 8.3 NE 1.3 3.8 NE STEEP 7.1
2024-04-18 04:40 am 8.2 7.9 7.7ENE 1.6 3.7 NNE STEEP 7.0
2024-04-18 04:10 am 9.5 9.5 8.3 NE 1.6 3.4 NNE STEEP 7.3
2024-04-18 03:40 am 8.9 8.9 12.9ENE 1.6 3.6 NNE SWELL 7.1
2024-04-18 03:10 am 8.9 8.5 7.7NNE 2.0 3.7 NNE STEEP 6.9
2024-04-18 02:40 am 9.2 9.2 12.9ENE 2.0 4.0 NNE SWELL 7.2
2024-04-18 02:10 am 8.5 8.5 12.9 NE 1.6 3.7 NNE SWELL 6.8
2024-04-18 01:40 am 8.9 8.5 8.3NNE 2.0 4.2 NNE STEEP 7.0
2024-04-18 01:10 am 9.2 8.9 7.7NNE 3.0 4.8 NNE STEEP 6.9
2024-04-18 12:40 am 8.9 8.2 12.1 NE 3.9 5.0 NE SWELL 6.8
2024-04-18 12:10 am 8.2 5.9 12.1 NE 5.6 6.2 NE SWELL 6.6
2024-04-17 11:40 pm 7.5 5.6 12.9ENE 5.2 7.7 E SWELL 6.6
2024-04-17 11:10 pm 7.2 5.2 12.1 NE 5.2 7.1 E SWELL 6.4
2024-04-17 10:40 pm 7.2 5.9 12.1 NE 4.3 5.6 ESE SWELL 6.7
2024-04-17 10:10 pm 6.9 5.9 12.9NNE 3.6 5.3 ESE SWELL 6.8
2024-04-17 09:40 pm 7.5 7.2 12.9 NE 2.6 5.6 ESE SWELL 7.4
2024-04-17 09:10 pm 6.9 5.6 10.8 NE 3.6 4.2 ESE SWELL 6.8
2024-04-17 08:40 pm 7.5 6.6 12.1 NE 3.3 6.7 E SWELL 7.5
2024-04-17 08:10 pm 7.2 5.2 12.9ENE 5.2 7.7 E SWELL 7.1
2024-04-17 07:40 pm 7.2 6.9 12.9ENE 2.0 3.8 SSE SWELL 7.1
2024-04-17 07:10 pm 7.2 6.9 11.4 NE 2.3 5.3 ESE SWELL 7.2
2024-04-17 06:40 pm 7.2 6.6 12.9 NE 2.6 4.8 ESE SWELL 7.1
2024-04-17 06:10 pm 6.9 6.6 12.1 NE 2.6 4.8 E SWELL 6.6
2024-04-17 05:40 pm 7.2 6.6 13.8ENE 2.3 4.8 SE SWELL 6.8
2024-04-17 05:10 pm 7.2 6.6 12.9 NE 2.6 5.0 ESE SWELL 6.8
2024-04-17 04:40 pm 6.9 5.9 10.8 NE 3.9 5.9 ESE SWELL 6.3
2024-04-17 04:10 pm 7.9 6.6 11.4 NE 4.3 4.5 SSE SWELL 6.8
2024-04-17 03:40 pm 7.5 6.6 12.1 NE 3.6 4.5 SE SWELL 6.5
2024-04-17 03:10 pm 7.2 5.9 12.9ENE 4.3 6.7 E SWELL 6.4
2024-04-17 02:40 pm 7.2 5.6 12.9ENE 4.6 7.1 E SWELL 6.5
2024-04-17 02:10 pm 7.5 6.6 12.9 NE 4.3 5.9 E SWELL 6.6
2024-04-17 01:40 pm 7.5 6.9 12.9 NE 3.0 4.8 SE SWELL 6.5
2024-04-17 01:10 pm 7.9 7.2 12.1 NE 3.6 5.6 E SWELL 6.9

Plot of wave energy versus frequency (and period)